Location: ???????
(56.2167°N, 38.0500°E)
Time: 14:21:44
(UTC+00:00)

Cosmos 2221 - Pass Details

Date: 19 May 2025
Orbit: 572 x 593 km, 82.5° (Epoch: 20 June)

Event Time Altitude Azimuth Distance (km) Brightness Sun altitude
Exits shadow 20:01:20 - 206° (SSW) 2,050 4.8 -11.8°
Reaches altitude 10° 20:01:43 10° 207° (SSW) 1,893 4.7 -11.9°
Maximum altitude 20:05:50 57° 286° (WNW) 689 3.0 -12.0°
Drops below altitude 10° 20:09:58 10° 6° (N) 1,898 6.2 -12.2°
Sets 20:12:12 0° 11° (N) 2,800 7.1 -12.3°
